CW9203 Weather Reports


Display with metric or nautical units.
time (UTC)temp
F
wind
direction
speed
MPH
gust
MPH
rain 1hr
in
rain 24hr
in
rain mn
in
humidity
%
barometer
mb
20260902033805 60 237 7.0 16.0 0.00 0.03 0.00 56 1021.0
20260902032804 61 240 8.0 15.0 0.00 0.05 0.00 59 1021.1
20260902031805 62 242 8.0 14.0 0.00 0.05 0.00 62 1021.1
20260902030804 61 235 7.0 18.0 0.00 0.05 0.00 59 1021.1
20260902030305 61 251 9.0 16.0 0.00 0.05 0.00 61 1021.1
20260902025804 61 253 6.0 21.0 0.00 0.05 0.00 62 1021.1
20260902025306 61 231 9.0 21.0 0.00 0.05 0.00 61 1021.2
20260902024804 61 235 8.0 20.0 0.00 0.05 0.00 59 1021.1
20260902024305 61 228 12.0 20.0 0.00 0.05 0.00 62 1021.2
20260902022804 62 237 9.0 20.0 0.00 0.06 0.00 64 1021.1
20260902021805 63 245 7.0 17.0 0.00 0.06 0.00 64 1021.0
20260902020304 64 238 8.0 22.0 0.00 0.06 0.00 64 1021.1
20260902014305 63 233 13.0 20.0 0.00 0.06 0.00 64 1021.4
20260902012805 62 226 6.0 14.0 0.00 0.06 0.00 63 1021.8
20260902012309 62 223 6.0 13.0 0.00 0.06 0.00 64 1021.8
20260902005805 62 232 9.0 16.0 0.00 0.06 0.00 64 1021.9
20260902005306 62 235 10.0 20.0 0.00 0.06 0.00 63 1022.0
20260902003305 61 225 6.0 13.0 0.00 0.06 0.00 59 1022.4
20260902002804 61 237 7.0 15.0 0.00 0.06 0.00 59 1022.4
20260902002306 60 233 6.0 12.0 0.00 0.06 0.00 60 1022.5
20260902001304 60 218 9.0 17.0 0.00 0.06 0.00 63 1022.6
20260902000804 61 225 3.0 15.0 0.00 0.06 0.00 64 1022.6
20260902000305 61 217 6.0 13.0 0.00 0.06 0.00 64 1022.5
20260901235804 61 231 5.0 12.0 0.00 0.06 0.00 60 1022.6
20260901235307 61 214 5.0 13.0 0.00 0.06 0.00 61 1022.6
20260901234304 61 213 4.0 13.0 0.00 0.06 0.00 59 1022.6
20260901233804 60 223 6.0 13.0 0.00 0.06 0.00 57 1022.7
20260901233305 60 244 6.0 15.0 0.00 0.06 0.00 61 1022.7
20260901232804 61 228 9.0 17.0 0.00 0.06 0.00 63 1022.7
20260901230305 62 226 5.0 15.0 0.00 0.06 0.00 57 1022.6
20260901224804 60 244 9.0 16.0 0.00 0.06 0.00 48 1022.6
20260901223805 58 220 6.0 18.0 0.00 0.06 0.00 14 1022.7
20260901223305 57 226 5.0 12.0 0.00 0.06 0.00 8 1022.7
20260901222306 56 205 6.0 9.0 0.00 0.06 0.00 10 1022.8
20260901221805 56 237 6.0 14.0 0.00 0.06 0.00 11 1022.8
20260901220805 56 210 5.0 12.0 0.00 0.06 0.00 16 1022.9
20260901220307 58 242 12.0 17.0 0.00 0.06 0.00 37 1022.9
20260901214805 58 236 5.0 13.0 0.00 0.06 0.00 41 1022.8
20260901214304 58 237 6.0 14.0 0.00 0.06 0.00 38 1022.8
20260901213806 58 236 6.0 12.0 0.00 0.06 0.00 42 1022.9
20260901212805 57 239 3.0 7.0 0.00 0.06 0.00 24 1022.9
20260901212306 57 241 5.0 9.0 0.00 0.06 0.00 20 1022.9
20260901211804 56 232 5.0 10.0 0.00 0.06 0.00 8 1022.9
20260901205806 55 240 5.0 12.0 0.00 0.06 0.00 4 1023.0
20260901205306 55 248 7.0 10.0 0.00 0.06 0.00 4 1022.9
20260901204804 55 233 8.0 15.0 0.00 0.06 0.00 4 1022.9
20260901203804 55 240 5.0 12.0 0.00 0.06 0.00 4 1022.8
20260901202306 55 223 3.0 10.0 0.00 0.06 0.00 4 1022.9
20260901200805 54 237 5.0 7.0 0.00 0.06 0.00 4 1022.8
20260901200305 54 234 6.0 8.0 0.00 0.06 0.00 4 1022.7
20260901195805 54 251 5.0 12.0 0.00 0.06 0.00 4 1022.6
20260901195306 54 251 2.0 3.0 0.00 0.06 0.00 4 1022.7
20260901194805 54 238 3.0 5.0 0.00 0.06 0.00 4 1022.7
20260901194305 53 260 1.0 3.0 0.00 0.06 0.00 4 1022.7
20260901193304 52 242 2.0 6.0 0.00 0.06 0.00 4 1022.6
20260901192306 51 244 1.0 3.0 0.00 0.06 0.00 4 1022.5
20260901190305 51 251 1.0 3.0 0.00 0.06 0.00 4 1022.4
20260901184804 51 266 1.0 2.0 0.00 0.06 0.00 4 1022.3
20260901184305 50 257 1.0 2.0 0.00 0.06 0.00 4 1022.2
20260901183804 50 260 1.0 2.0 0.00 0.06 0.00 4 1022.2
20260901182805 50 249 1.0 2.0 0.00 0.07 0.00 4 1022.1
20260901181306 50 246 2.0 3.0 0.00 0.07 0.00 4 1022.1
20260901175805 50 237 2.0 2.0 0.00 0.07 0.00 4 1022.0
20260901174805 50 236 1.0 1.0 0.00 0.07 0.00 4 1021.9
20260901174305 50 234 1.0 3.0 0.00 0.07 0.00 4 1021.9
20260901173805 49 230 1.0 2.0 0.00 0.07 0.00 4 1021.9
20260901172804 49 256 1.0 3.0 0.00 0.07 0.00 4 1021.8
20260901172305 49 273 0.0 1.0 0.00 0.07 0.00 4 1021.8
20260901170805 49 270 1.0 3.0 0.00 0.07 0.00 4 1021.8
20260901170305 49 261 0.0 1.0 0.00 0.07 0.00 4 1021.7
20260901165805 49 243 0.0 1.0 0.00 0.07 0.00 4 1021.8
20260901165307 49 243 0.0 1.0 0.00 0.07 0.00 6 1021.8
20260901160304 51 242 2.0 3.0 0.00 0.09 0.00 16 1021.5
20260901152804 52 234 0.0 2.0 0.00 0.09 0.00 27 1021.4
20260901152305 52 236 0.0 1.0 0.00 0.09 0.00 28 1021.6
20260901151804 53 236 2.0 3.0 0.00 0.09 0.00 27 1021.7
20260901150304 53 209 3.0 7.0 0.00 0.09 0.00 22 1021.7
20260901143803 53 225 2.0 8.0 0.00 0.09 0.00 23 1022.1
20260901143303 53 250 2.0 3.0 0.00 0.09 0.00 22 1022.2
20260901142803 54 230 1.0 6.0 0.00 0.09 0.00 22 1022.2
20260901142305 54 226 3.0 6.0 0.00 0.09 0.00 21 1022.2
20260901135305 53 238 2.0 5.0 0.00 0.09 0.00 36 1022.2
20260901134804 53 235 2.0 8.0 0.00 0.09 0.00 37 1022.2
20260901134304 53 239 2.0 3.0 0.00 0.09 0.00 38 1022.2
20260901133803 53 235 4.0 8.0 0.00 0.09 0.00 39 1022.3
20260901125308 54 198 5.0 12.0 0.00 0.09 0.00 52 1022.1
20260901124804 54 223 5.0 10.0 0.00 0.09 0.00 51 1022.0
20260901123803 54 208 5.0 12.0 0.00 0.09 0.00 44 1021.8
20260901122306 53 228 3.0 14.0 0.00 0.10 0.00 31 1021.9
20260901121304 54 176 2.0 6.0 0.00 0.10 0.00 30 1021.9
20260901120819 54 206 2.0 7.0 0.00 0.10 0.00 38 1021.9
20260901115804 53 238 2.0 6.0 0.00 0.10 0.06 42 1021.9
20260901113304 53 221 3.0 8.0 0.00 0.10 0.06 47 1021.7
20260901112306 53 233 3.0 8.0 0.00 0.10 0.06 51 1021.7
20260901111803 54 234 3.0 6.0 0.00 0.10 0.06 51 1021.6
20260901110303 53 237 5.0 8.0 0.00 0.10 0.06 41 1021.7
20260901104304 53 235 3.0 8.0 0.00 0.10 0.06 28 1021.6
20260901102306 53 231 3.0 9.0 0.00 0.10 0.06 14 1021.8
20260901101804 53 245 4.0 8.0 0.00 0.10 0.06 11 1021.9
20260901101304 53 230 4.0 9.0 0.00 0.10 0.06 11 1021.8
20260901095306 54 217 5.0 9.0 0.00 0.10 0.06 27 1021.6
20260901094804 55 210 6.0 10.0 0.00 0.10 0.06 33 1021.6
20260901092305 56 245 5.0 12.0 0.00 0.10 0.06 64 1021.3
20260901090303 55 205 2.0 7.0 0.00 0.10 0.06 59 1021.3
20260901085804 55 236 3.0 6.0 0.00 0.10 0.06 56 1021.2
20260901084303 55 216 4.0 8.0 0.00 0.10 0.06 50 1021.1
20260901075307 56 205 5.0 12.0 0.00 0.10 0.06 63 1020.8
20260901074303 56 211 4.0 12.0 0.00 0.10 0.06 64 1020.7
20260901072805 55 347 5.0 8.0 0.00 0.10 0.06 35 1018.0